Timeline UpdatesTrip UpdatesNews PostsPvt PostsTravel TipsAdmin PostsConv PostsFollowed PostsChat RequestsBlog PostsPNR Posts

Disclaimer
Search
 
 
Fri Jul 25, 2014 19:11:24 ISTHomeTrainsΣChainsAtlasPNRForumGalleryNewsFAQTripsMembersLoginFeedback
No Recent News for this Train
Other Trains in the News **new
Latest...
⇐ Return Journey: Train# 59207

59208/Okha - Bhavnagar Passenger

Feb 22 2014 (11:46PM)
Change Departure Station:
Change Arrival Station:
Post a Train Travel TipPost a Train Travel Tip **new
Post a Comment/Question/Picture/VideoPost a Comment/Question/Picture/Video
Pantry/Catering
✕ NO Pantry Car
✕ NO Catering
RSA - Rake Sharing
59267/59268 Bhavnagar-Palitana Passenger
Rake/Coach Composition
Eng.. GEN..GEN..GEN..S2..S1..GEN..GEN..GEN..SLR
Loco
RTM WDM 3A.
News    PNR    Forum    Time-Table    Availability    Fare Chart    Map    Arr/Dep History    Trips    Gallery    ΣChains    X/O    Timeline    
Travel Time: 6h 50m    28 halts    Distance: 281 km    Avg Speed: 41 km/hr
Type: Passenger
Zone: WR/Western
Departs @ 14:45
Platform# 1
SMTWTFS
Okha/OKHA 
Arrives @ 21:35
Platform# ???
SMTWTFS
Sindhawadar/SDD 

28 halts. 31 intermediate Stations between Okha and Sindhawadar

Show ALL intermediate Stations  Show Old Time-Table

#CodeStation NameX/OArrivesAvgDepartsAvgHaltPFDay#KmSpeedElevZoneAddress
1OKHA»Okha (3)»  -14:45-110.0635mWROkha, Gujarat
2MTHPMithapur  14:54-14:55-1m--19.5253mWRJamnagar, Gujarat
3BMRNBhimranaX  15:02-15:03-1m--112.4356mWRBhimrana, Gujarat
4VVAVarvala  15:22-15:23-1m--123.66014mWRJamnagar, Gujarat
5DWKDwarka (2)X  15:28-15:30-2m2128.61614mWRDwarka, Gujarat
6GRJAGorinja  15:45-15:46-1m--132.5605mWRKhambhalia-Dwarka (SH 6), Gujarat
7OKDOkha MadhiX  16:04-16:05-1m--150.5285mWRNH 8E, Gujarat
8KRGAKuranga  16:23-16:24-1m--158.87012mWRJamnagar, Gujarat
9BHTABhatiya  16:34-16:35-1m--170.44634mWRNational Highway 8E, Gujarat
10BPKABhopalka  16:48-16:49-1m--180.47146mWRJamnagar, Gujarat
11BHTLBhatel  17:01-17:02-1m--194.65935mWRJamnagar, Gujarat
12VQDViramdad  17:13-17:14-1m--1105.34949mWRKhambhalia-Dwarka (SH 6), Gujarat
13KMBLKhambhalia  17:23-17:25-2m11112.75849mWRKhambhalia, Gujarat
14SYQSinhanX  17:33-17:34-1m--1120.55650mWRSH 6, Gujarat
15MDPRModpur  17:44-17:45-1m--1129.85447mWRKhambhalia-Lalpur, Gujarat
16KNLSKanalus JunctionX  17:57-17:58-1m--1140.63936mWRJamnagar, Gujarat
17PPLIPipli  18:06-18:07-1m--1145.75230mWRJamnagar, Gujarat
18LKBLLakhabawal  18:18-18:19-1m--1155.25521mWRJamnagar, Gujarat
19JAMJamnagar (2)  18:32-18:37-5m11167.04314mWRJamnagar, Gujarat
20HAPAHapa (3)  18:49-18:54-5m31175.75416mWRJamnagar, Gujarat
21ALBAlia Bada  19:05-19:06-1m--1185.65927mWRJamnagar, Gujarat
22WTJJam Wanthali  19:18-19:19-1m--1197.33852mWRRanuja Village Rd, Gujarat
23JALDJaliya DevaniX  19:31-19:33-2m--1204.93450mWRRanuja Village Rd, Gujarat
24HMHadmatiya Junction  19:47-19:48-1m--1212.84870mWRHadmatiya Junction Railway Station, Gujarat
25CXChanolX  19:57-19:59-2m--1219.93289mWRState Highway 25, Gujarat
26PDHPadadhari  20:12-20:13-1m--1226.86071mWRPaddhari, Gujarat
27KHDIKhanderi  20:27-20:28-1m--1240.830111mWRRajkot, Gujarat
28RJTRajkot Junction (5)X  20:50-21:00-10m11251.634128mWRRajkot, Gujarat
29KHCKhorana  21:19-21:20-1m--1262.374131mWRState Highway 113, Gujarat
30SDD•Sindhawadar•X  21:35-21:36-1m--1280.838105mWRSindhavadar, Gujarat
31WKRCWankaner City  21:52-21:53-1m--1291.01380mWRWankaner, Gujarat
32WKRWankaner Junction (4)  22:02-22:04-2m--1292.93287mWRWankaner, Gujarat
33DLDaladi  22:27-22:28-1m--1305.342115mWRDaladi, Gujarat
34THANThan Junction (3)  22:48-22:50-2m11319.548138mWRThangadh, Gujarat
35VDVagdiyaX  23:03-23:04-1m--1329.848149mWRState Highway 113, Gujarat
36RARamparda  23:12-23:13-1m--1336.361141mWRSurendranagar, Gujarat
37MOLMuli RoadX  23:22-23:24-2m11345.537108mWRSurendranagar, Gujarat
38DXRDigsar  23:37-23:38-1m--1353.521100mWRState Highway 17, Gujarat
39CJRChamaraj  23:57-00:29-32m--1360.1986mWRState Highway 17, Gujarat
40SUNRSurendranagar Junction (4)  01:15-01:55-40m32367.22272mWRSurendra Nagar, Gujarat
41SRGTSurendranagar Gate (1)X  02:01-02:02-1m12369.44271mWRSurendranagar, Gujarat
42JVNJorawarnagar Junction (1)  02:06-02:07-1m12372.13669mWRSurendra Nagar, Gujarat
43WCWadhwan City  02:13-02:14-1m--2375.77667mWRSurendranagar, Gujarat
44LMLimbdi (1)  02:30-02:31-1m12396.06051mWRLimbdi, Gujarat
45CDAChuda  02:41-02:42-1m--2406.07063mWRState Highway 38, Gujarat
46RURRanpur  02:56-02:57-1m--2422.36561mWRRanpur, Gujarat
47KDIKundli  03:07-03:08-1m--2433.15786mWRState Highway 38, Gujarat
48BTDBotad Junction (5)  03:20-03:22-2m--2444.56696mWRBotad, Gujarat
49LTDLathidad  03:32-03:33-1m--2455.55668mWRTajpar Rd, Gujarat
50NGANingala Junction  03:41-03:42-1m--2463.16457mWRState Highway 117, Gujarat
51ALMRAlampur  03:49-03:50-1m--2470.65059mWRState Highway 31, Gujarat
52UJUjalvav  03:58-03:59-1m--2477.35164mWRState Highway 31, Gujarat
53DLJDhola Junction  04:11-04:12-1m--2487.48337mWRDhola, Gujarat
54SOASanosra  04:20-04:21-1m--2498.55136mWRState Highway 25, Gujarat
55BJUDBajud  04:26-04:27-1m--2502.76137mWRState Highway 31, Gujarat
56SGDSongadh (1)  04:33-04:34-1m12508.93040mWRBhavnagar, Gujarat
57SOJNSihor Gujarat  04:49-04:50-1m--2516.34542mWRShihor, Gujarat
58KDMRKodiyar Mandir  04:57-04:58-1m--2521.62292mWRSH 21, Gujarat
59VTJVartej  05:12-05:13-1m--2526.82924mWRBhavnagar, Gujarat
60BVPBhavnagar Para  05:28-05:29-1m--2534.0813mWRBhavnagar, Gujarat
61BVCBhavnagar Terminus (2)  05:50--12536.8-11mWRBhavnagar, Gujarat
Scroll to Top
Scroll to Bottom